User: anonymous   Login
Location: Newark
(50.4348°N, 30.5552°E)
Time: 01:47:47
(UTC+00:00)
Language:

SR - Orbit

View from above orbital plane
View from above orbital plane
View from above satellite
View from above satellite

Ground track
Ground track

The orbit data is extracted from the following two-line orbital elements,

1    46U 60007B   20027.51143515 -.00000026  00000-0  18051-4 0  9997
2    46  66.6903  70.0407 0216497 238.1069 119.8815 14.49271194118531
Epoch (UTC): 27 January 2020 12:16:27
Eccentricity: 0.0216497
inclination: 66.6903°
perigee height: 574 km
apogee height: 882 km
right ascension of ascending node: 70.0407°
argument of perigee: 238.1069°
revolutions per day: 14.49271194
mean anomaly at epoch: 119.8815°
orbit number at epoch: 11853

The dashed part of the orbit path shows where the satellite is in the earth's shadow,  

DLR